Regional Weather Roundup
Issued by NWS Cleveland, OH

Home | Current Version | Previous Version | Text Only | Print | Product List | Glossary Off
Versions: 1 2 3 4 5 6 7 8 9 10 11 12 13 14 15 16 17 18 19 20 21 22 23 24 25 26 27 28 29 30 31 32 33 34 35 36 37 38 39 40 41 42 43 44 45 46 47 48 49 50

876
ASUS41 KCLE 111110
RWRCLE
OHIO REGIONAL WEATHER ROUNDUP
NATIONAL WEATHER SERVICE WILMINGTON, OH
600 AM EST THU FEB 11 2016

NOTE: "FAIR" INDICATES FEW OR NO CLOUDS BELOW 12,000 FEET WITH NO
SIGNIFICANT WEATHER AND/OR OBSTRUCTIONS TO VISIBILITY.

OHZ001>008-015>018-024>027-034-035-043-044-111200-
   NORTHWEST OHIO

CITY           SKY/WX    TMP DP  RH WIND       PRES   REMARKS
DEFIANCE       CLOUDY    16   9  74 W3        30.15R
FINDLAY        CLOUDY    13   8  81 W7        30.12R WCI   3
TOLEDO EXPRESS CLOUDY    14   6  70 W7        30.13R WCI   4
TOLEDO EXEC    CLOUDY    14   4  64 NW9       30.14R WCI   2
LIMA           CLOUDY    14   9  80 W9        30.12R WCI   2
$$

OHZ009>014-019>023-028>033-038-089-111200-
   NORTHEAST OHIO

CITY           SKY/WX    TMP DP  RH WIND       PRES   REMARKS
CLE-HOPKINS    FLURRIES  14   1  56 NW12      30.09R WCI   0
CLE-LAKEFRONT  CLOUDY    17   6  62 NW25G33   30.07R WCI  -1
CUY CO. ARPT   NOT AVBL
LORAIN-ELYRIA  CLOUDY    15   0  51 N17       30.08R WCI  -1
ASHTABULA      CLOUDY    12   3  67 W13G21    30.00R WCI  -3
AKRON-CANTON   LGT SNOW  11   6  81 W12       30.03R VSB 1   WCI  -3
WOOSTER        FLURRIES   9   3  77 W15       30.06R WCI  -8
MANSFIELD      MOCLDY     6   4  91 W8        30.06R WCI  -7
YOUNGSTOWN     LGT SNOW  12   6  77 W12       29.98R WCI  -2
$$

OHZ042-051>053-060>062-070>072-077>081-111200-
  SOUTHWEST OHIO

CITY           SKY/WX    TMP DP  RH WIND       PRES   REMARKS
CINC-COVINGTON CLOUDY    13   7  77 W5        30.17R WCI   5
CINC-LUNKEN    CLOUDY    17   6  62 NW5       30.22R WCI  10
HAMILTON       CLOUDY    15   7  70 W3        30.21R
DAYTON         FAIR       7   4  87 W8        30.15R WCI  -6
WRIGHT-PAT AFB PTCLDY     8   4  84 S5        30.16R WCI  -1
DAYTON GENERAL FAIR       8   3  80 SW3       30.15R
WILMINGTON     FAIR       9   5  84 W6        30.14R WCI  -1
$$

OHZ036-037-039>041-045>050-054>059-063>069-073>076-082>088-111200-
  CENTRAL AND SOUTHEAST OHIO

CITY           SKY/WX    TMP DP  RH WIND       PRES   REMARKS
COLUMBUS       FAIR       8   1  73 W8        30.14R WCI  -4
OSU AIRPORT    FAIR       6   2  83 W8        30.13R WCI  -7
BOLTON FIELD   FAIR       7   2  81 W3        30.15R
RICKENBACK AFB FAIR       6   1  77 W6        30.16R WCI  -4
NEWARK         FAIR       6   1  80 MISG      30.13R
MARION         FAIR      11   4  73 W7        30.11R WCI   0
LANCASTER      MOCLDY     4  -1  80 CALM      30.15R
ZANESVILLE     FAIR      11   3  70 SW7       30.12R WCI   0
NEW PHILLY     FAIR      11   2  67 W5        30.09R WCI   3
$$




USA.gov is the U.S. government's official web portal to all federal, state and local government web resources and services.